Погода в Катандуве

Бразилия     21°08′00″S   49°00′53″W
темп.,
°C
ветер,
м/с
пор.,
м/с
влажн.,
%
обл.,
%
осадки,
мм/ч
давл.,
гПа
погр.,
м
8 декабря, ср
ср800:00+18юв714691 0.0 1013723
03:00+17юв612710 0.0 1012570
06:00+16юв511802 0.0 1013442
09:00+22вюв67640 0.1 1014834
12:00+26вюв335063 0.0 10121733
15:00+27ююв5449100 0.0 10101651
18:00+24ю3759100 0.0 1010243
21:00+22юв713588 0.0 1013616
9 декабря, чт
чт900:00+19юв613720 0.0 1013477
03:00+16юв411810 0.0 1013382
06:00+15юв311880 0.0 1014359
09:00+21юв45610 0.0 1014682
12:00+27ююв33410 0.0 10121541
15:00+29юз44310 0.0 10092037
18:00+25юз35470 0.0 100891
21:00+21юв22460 0.0 101116
10 декабря, пт
пт1000:00+19вюв413490 0.0 1012327
03:00+17вюв49636 0.0 1011168
06:00+16юв37680 0.0 1012124
09:00+24юв34470 0.0 1012457
12:00+29ююв22335 0.0 10101206
15:00+31ююз222719 0.0 10072147
18:00+27юз2242100 0.0 100620
21:00+23ссз0038100 0.0 100711
11 декабря, сб
сб1100:00+22всв223935 0.0 100715
03:00+21всв33444 0.0 100631
06:00+19св47585 0.0 1008112
09:00+27ссв4643100 0.0 1009429
12:00+32с453436 0.0 10072293
15:00+34ссз34297 0.0 10042977
18:00+31ююз124155 0.0 100313
21:00+26в33436 0.0 100536
12 декабря, вс
вс1200:00+24св496434 0.0 1006156
03:00+23св51168100 0.0 1005248
06:00+23ссв51276100 0.0 1007270
09:00+29с685670 0.0 1008704
12:00+33с564019 0.0 10062496
15:00+30с345190 0.0 1004141
18:00+26в347277 0.8 1005111
21:00+25с3474100 0.8 100751